Paynesville, MN

11:07 PM CDT on August 26, 2016 (GMT -0500)
Paynesville

Weather History for KPEX - June, 2013

Change the Weather History Date:

Friday, June 28, 2013

  Actual Average (KLJF) Record (KLJF)
Temperature  
Mean Temperature 68 °F -  
Max Temperature 77 °F 81 °F 99 °F (1961)
Min Temperature 60 °F 60 °F 35 °F (2000)
Cooling Degree Days 4    
Growing Degree Days 18 (Base 50)    
Moisture  
Dew Point 57 °F    
Average Humidity 65    
Maximum Humidity 85    
Minimum Humidity 47    
Precipitation  
Precipitation 0.00 in - - ()
Sea Level Pressure  
Sea Level Pressure 29.86 in    
Wind  
Wind Speed 11 mph (NW)    
Max Wind Speed 23 mph    
Max Gust Speed 32 mph    
Visibility 10 miles    
Events Rain    
Averages and records for this station are not official NWS values.
T = Trace of Precipitation, MM = Missing Value Source: NWS Daily Summary

Daily Weather History Graph

Daily Weather History Graph

Search for Another Location

Airport or City:

Trip Planner

Search our weather history database for the weather conditions in past years. The results will help you decide how hot, cold, wet, or windy it might be!

Date:

Astronomy

Jun. 28, 2013 Rise Set
Actual Time 5:33 AM CDT 9:11 PM CDT
Civil Twilight 4:55 AM CDT 9:48 PM CDT
Nautical Twilight 4:05 AM CDT 10:39 PM CDT
Astronomical Twilight 2:57 AM CDT 11:46 PM CDT
Moon No Moon Rise 12:00 PM CDT (6/28)
Length of Visible Light 16h 53m
Length of Day
15h 37m
Waning Gibbous, 66% of the Moon is Illuminated
Jun 28
Waning Gibbous
Jun 29
Last Quarter
Jul 8
New
Jul 15
First Quarter
Jul 22
Full

Hourly Weather History & Observations

Time (CDT) Temp. Dew Point Humidity Pressure Visibility Wind Dir Wind Speed Gust Speed Precip Events Conditions
12:13 AM 70.0 °F 54.5 °F 58% 29.87 in 10.0 mi NW 5.8 mph - N/A   Clear
12:32 AM 68.5 °F 54.9 °F 62% 29.87 in 10.0 mi WNW 5.8 mph - N/A   Clear
12:53 AM 68.0 °F 54.7 °F 62% 29.87 in 10.0 mi WNW 4.6 mph - N/A   Clear
1:33 AM 65.3 °F 55.4 °F 70% 29.87 in 10.0 mi West 4.6 mph - N/A   Clear
1:53 AM 62.6 °F 56.3 °F 80% 29.86 in 10.0 mi West 4.6 mph - N/A   Clear
2:13 AM 62.1 °F 56.1 °F 81% 29.87 in 10.0 mi WSW 3.5 mph - N/A   Clear
2:32 AM 61.7 °F 56.3 °F 82% 29.86 in 10.0 mi WSW 5.8 mph - N/A   Clear
2:53 AM 61.0 °F 55.8 °F 83% 29.86 in 10.0 mi West 4.6 mph - N/A   Clear
3:13 AM 60.8 °F 56.3 °F 85% 29.86 in 10.0 mi West 5.8 mph - N/A   Clear
3:33 AM 61.2 °F 56.3 °F 84% 29.86 in 10.0 mi West 6.9 mph - N/A   Clear
3:53 AM 62.1 °F 57.0 °F 84% 29.85 in 10.0 mi West 9.2 mph - N/A   Clear
4:13 AM 63.3 °F 57.6 °F 81% 29.86 in 10.0 mi West 9.2 mph - N/A   Clear
4:33 AM 63.7 °F 57.6 °F 80% 29.85 in 10.0 mi West 8.1 mph - N/A   Clear
4:52 AM 63.0 °F 57.4 °F 82% 29.85 in 10.0 mi West 8.1 mph - N/A   Clear
5:13 AM 63.1 °F 57.2 °F 81% 29.86 in 10.0 mi West 9.2 mph - N/A   Clear
5:33 AM 63.5 °F 57.0 °F 79% 29.85 in 10.0 mi West 10.4 mph - N/A   Clear
5:53 AM 63.7 °F 56.5 °F 77% 29.86 in 10.0 mi West 11.5 mph - N/A   Clear
6:13 AM 64.4 °F 56.3 °F 75% 29.85 in 10.0 mi West 11.5 mph 20.7 mph N/A   Clear
6:33 AM 64.9 °F 56.1 °F 73% 29.85 in 10.0 mi West 15.0 mph - N/A   Clear
6:53 AM 65.7 °F 56.3 °F 72% 29.85 in 10.0 mi WNW 12.7 mph 20.7 mph N/A   Clear
7:13 AM 66.6 °F 56.7 °F 70% 29.85 in 10.0 mi West 15.0 mph 20.7 mph N/A   Clear
7:33 AM 67.5 °F 57.2 °F 70% 29.85 in 10.0 mi WNW 19.6 mph - N/A   Clear
7:53 AM 68.0 °F 56.7 °F 67% 29.85 in 10.0 mi NW 19.6 mph 26.5 mph N/A   Clear
8:12 AM 68.5 °F 56.3 °F 65% 29.86 in 10.0 mi WNW 17.3 mph 26.5 mph N/A   Clear
8:33 AM 68.9 °F 55.9 °F 63% 29.85 in 10.0 mi WNW 17.3 mph 28.8 mph N/A   Clear
8:53 AM 69.8 °F 55.9 °F 61% 29.85 in 10.0 mi NW 19.6 mph 25.3 mph N/A   Clear
9:13 AM 70.3 °F 55.6 °F 59% 29.86 in 10.0 mi WNW 17.3 mph 28.8 mph N/A   Clear
9:33 AM 71.2 °F 55.6 °F 58% 29.85 in 10.0 mi NW 23.0 mph 29.9 mph N/A   Clear
9:53 AM 72.0 °F 55.8 °F 57% 29.85 in 10.0 mi NW 19.6 mph 27.6 mph N/A   Scattered Clouds
10:12 AM 72.1 °F 54.5 °F 54% 29.85 in 10.0 mi NW 20.7 mph 32.2 mph N/A   Scattered Clouds
10:33 AM 73.0 °F 54.5 °F 52% 29.85 in 10.0 mi NW 19.6 mph 27.6 mph N/A   Scattered Clouds
10:53 AM 73.8 °F 54.7 °F 51% 29.85 in 10.0 mi NW 21.9 mph 28.8 mph N/A   Scattered Clouds
11:13 AM 73.0 °F 54.5 °F 52% 29.85 in 10.0 mi NW 20.7 mph 29.9 mph N/A   Mostly Cloudy
11:33 AM 73.6 °F 55.2 °F 53% 29.85 in 10.0 mi NW 18.4 mph 28.8 mph N/A   Mostly Cloudy
11:52 AM 74.3 °F 56.1 °F 53% 29.85 in 10.0 mi NW 19.6 mph 28.8 mph N/A   Mostly Cloudy
12:13 PM 73.4 °F 56.3 °F 55% 29.86 in 10.0 mi NW 19.6 mph 28.8 mph N/A   Overcast
12:33 PM 72.3 °F 57.0 °F 59% 29.86 in 10.0 mi NW 17.3 mph 24.2 mph N/A   Overcast
12:53 PM 72.5 °F 57.7 °F 60% 29.87 in 10.0 mi NW 19.6 mph 26.5 mph N/A   Overcast
1:13 PM 72.7 °F 58.5 °F 61% 29.86 in 10.0 mi NW 13.8 mph 24.2 mph N/A   Overcast
1:33 PM 72.1 °F 58.5 °F 62% 29.86 in 10.0 mi NNW 16.1 mph 23.0 mph N/A   Overcast
1:53 PM 74.1 °F 58.1 °F 57% 29.85 in 10.0 mi NW 19.6 mph 28.8 mph N/A   Mostly Cloudy
2:13 PM 74.7 °F 57.9 °F 56% 29.86 in 10.0 mi NW 16.1 mph 24.2 mph N/A   Mostly Cloudy
2:33 PM 73.6 °F 58.6 °F 59% 29.86 in 10.0 mi NW 15.0 mph 24.2 mph N/A   Overcast
2:53 PM 73.6 °F 58.5 °F 59% 29.86 in 10.0 mi NW 17.3 mph 25.3 mph N/A   Overcast
3:13 PM 74.1 °F 57.6 °F 56% 29.86 in 10.0 mi NW 15.0 mph 28.8 mph N/A   Overcast
3:33 PM 74.3 °F 58.1 °F 57% 29.87 in 10.0 mi NW 17.3 mph 25.3 mph N/A   Overcast
3:52 PM 75.6 °F 59.2 °F 57% 29.85 in 10.0 mi WNW 20.7 mph 27.6 mph N/A   Mostly Cloudy
4:13 PM 76.1 °F 57.6 °F 53% 29.85 in 10.0 mi NW 16.1 mph 25.3 mph N/A   Clear
4:33 PM 77.0 °F 57.7 °F 51% 29.85 in 10.0 mi NW 17.3 mph 23.0 mph N/A   Scattered Clouds
4:53 PM 77.4 °F 57.9 °F 51% 29.85 in 10.0 mi WNW 16.1 mph 21.9 mph N/A   Scattered Clouds
5:13 PM 76.1 °F 56.8 °F 51% 29.85 in 10.0 mi NW 12.7 mph 25.3 mph N/A   Scattered Clouds
5:33 PM 77.0 °F 56.3 °F 49% 29.84 in 10.0 mi NW 16.1 mph 24.2 mph N/A   Scattered Clouds
5:53 PM 77.5 °F 56.5 °F 48% 29.84 in 10.0 mi NNW 12.7 mph 25.3 mph N/A   Scattered Clouds
6:13 PM 77.7 °F 56.3 °F 48% 29.83 in 10.0 mi NW 17.3 mph 28.8 mph N/A   Scattered Clouds
6:33 PM 77.4 °F 55.8 °F 47% 29.83 in 10.0 mi NW 18.4 mph 25.3 mph N/A   Scattered Clouds
6:53 PM 77.0 °F 55.6 °F 47% 29.84 in 10.0 mi NW 16.1 mph 26.5 mph N/A   Scattered Clouds
7:12 PM 75.7 °F 55.0 °F 49% 29.84 in 10.0 mi NW 16.1 mph 23.0 mph N/A   Scattered Clouds
7:33 PM 75.6 °F 55.0 °F 49% 29.84 in 10.0 mi NNW 15.0 mph 24.2 mph N/A   Scattered Clouds
7:53 PM 74.7 °F 55.8 °F 52% 29.85 in 10.0 mi NNW 11.5 mph 19.6 mph N/A   Scattered Clouds
8:13 PM 74.1 °F 56.7 °F 54% 29.85 in 10.0 mi NNW 9.2 mph - N/A   Scattered Clouds
8:33 PM 72.0 °F 59.0 °F 64% 29.86 in 10.0 mi NNW 6.9 mph - N/A   Mostly Cloudy
8:52 PM 70.9 °F 59.0 °F 66% 29.86 in 10.0 mi NNW 6.9 mph - N/A   Scattered Clouds
9:13 PM 70.2 °F 59.2 °F 68% 29.87 in 10.0 mi NNW 5.8 mph - N/A   Scattered Clouds
9:33 PM 69.1 °F 59.2 °F 71% 29.88 in 10.0 mi North 12.7 mph 24.2 mph N/A Rain Light Rain
9:53 PM 64.8 °F 58.3 °F 79% 29.86 in 10.0 mi NNW 4.6 mph - N/A   Scattered Clouds
10:13 PM 64.4 °F 58.6 °F 82% 29.86 in 10.0 mi Calm Calm - N/A   Clear
10:33 PM 64.6 °F 59.4 °F 83% 29.87 in 10.0 mi NW 4.6 mph - N/A   Clear
10:53 PM 65.1 °F 59.5 °F 82% 29.87 in 10.0 mi NW 4.6 mph - N/A   Clear
11:13 PM 64.9 °F 59.7 °F 83% 29.86 in 10.0 mi NW 4.6 mph - N/A   Scattered Clouds
11:32 PM 65.7 °F 59.7 °F 81% 29.86 in 10.0 mi NW 5.8 mph - N/A   Scattered Clouds
11:53 PM 65.3 °F 59.7 °F 82% 29.85 in 10.0 mi NW 4.6 mph - N/A   Scattered Clouds